Temp_Advection
nan nan nan nan nan nan nan nan nan nan nan nan nan nan nan nan nan nan nan nan nan nan nan nan nan nan nan nan nan nan nan nan nan nan nan nan nan nan nan nan nan nan nan nan nan
nan 0 0 0 0 -0 -0 0 0 0 0 0 0 0 0 0 0 -0 -0 0 0 -0 0 -0 -0 0 -0 -0 -0 -0 0 -0 -0 -0 0 -0 0 -0 -0 -0 -0 0 0 0 nan
nan -0 0 0 -0 -0 0 0 0 0 0 -0 -0 -0 -0 0 0 -0 0 0 -0 -0 -0 -0 -0 -0 -0 -0 -0 -0 -0 -0 -0 -0 0 -0 0 -0 -0 -0 0 0 -0 0 nan
nan 0 0 0 0 0 0 0 0 0 0 -0 -0 -0 0 0 -0 -0 -0 -0 -0 -0 -0 -0 -0 -0 -0 -0 -0 -0 -0 -0 -0 0 0 0 0 -0 -0 0 0 0 0 -0 nan
nan 0 0 0 0 0 0 0 0 0 0 -0 -0 -0 0 -0 -0 -0 -0 -0 -0 -0 -0 -0 -0 -0 -0 -0 -0 -1 -0 -0 -0 0 0 0 -0 0 0 1 0 0 0 -0 nan
nan 0 0 0 0 0 0 0 0 0 0 0 0 0 -0 -0 -0 -0 -0 -0 -0 -0 0 0 -0 -0 -1 0 -0 -0 -0 -0 -0 -0 -0 -0 0 -0 -0 1 -0 0 -0 -0 nan
nan 0 0 0 0 0 0 0 0 0 0 0 0 0 -0 -0 0 -0 -0 -0 -0 0 -0 -0 0 0 -0 -0 0 -0 -0 -1 -0 -0 0 0 -0 -1 0 0 -0 -0 -0 -0 nan
nan 0 0 0 0 0 0 0 0 0 0 0 0 -0 -0 -0 -0 -0 -0 -0 0 0 -0 -0 -0 -0 -0 -1 -0 -0 -0 -0 -1 -0 -0 -0 -0 -0 0 -0 -0 -0 -0 -0 nan
nan 0 0 0 0 0 0 0 0 0 0 0 0 -0 -0 -0 0 -0 0 0 -0 -0 0 -0 -0 -0 -0 -1 -0 -0 0 0 -1 -0 -0 -1 -0 -1 0 -0 -0 -0 -0 0 nan
nan 0 0 0 0 0 0 0 0 0 -0 -0 -0 0 -0 0 0 -0 -0 0 0 -0 -0 -0 -0 -0 -0 -0 -0 -0 -0 0 1 -0 0 -1 -1 1 -1 -0 -0 -0 -0 0 nan
nan 0 0 0 0 0 0 -0 -0 -0 -0 -0 -0 -0 -0 -0 0 0 -0 0 -0 -0 -0 -0 -0 -0 -0 -0 -0 -0 -0 -0 0 -1 -0 -1 -1 0 0 -0 -0 -0 0 0 nan
nan 0 0 0 0 0 0 -0 -0 0 -0 -0 -0 -0 -0 -0 -0 0 -0 -0 -0 -0 0 -0 -0 -0 -0 -0 -0 -0 -0 -0 -0 -0 -0 -1 -0 -0 0 1 1 0 0 0 nan
nan 0 0 0 0 -0 0 -0 -0 0 -0 -0 -0 0 0 -0 -0 -0 -0 -0 -0 -0 -0 -0 -1 -0 -0 -0 -0 0 -0 -0 -0 0 0 -0 -0 -0 -0 0 0 0 0 0 nan
nan 0 0 0 0 -0 -0 0 0 -0 -0 -0 -0 0 0 -0 0 -0 -0 -0 -0 -0 -0 -0 -0 -0 -0 0 -0 -0 -0 -0 -0 -0 -0 0 -0 -0 -0 -0 -0 -0 -0 0 nan
nan 0 0 0 0 0 0 0 0 0 -0 -0 -0 0 0 -0 0 0 0 -0 -0 0 0 -0 0 0 0 -0 -0 -0 0 -0 -0 -0 -0 -0 -0 -0 -0 -0 -0 -0 0 1 nan
nan 0 0 -0 0 -0 -0 -0 0 -0 0 -0 -0 -0 -0 -0 0 0 -0 -0 0 -0 -0 -0 -0 -0 -0 0 0 -0 -0 -0 -0 -0 -0 -0 -0 -0 -0 0 0 0 0 1 nan
nan 0 -0 0 -0 -0 0 0 -0 0 -0 0 0 0 -0 -0 0 0 -0 -0 -0 -0 -0 -0 -0 -0 0 -0 -0 -1 -1 -0 -0 -0 0 -0 -0 -1 0 0 0 0 1 1 nan
nan -0 -0 -0 -0 -0 -0 -0 0 0 0 -0 -0 -0 -0 0 0 -0 -0 0 0 -0 -0 0 0 0 -0 -0 -0 -0 -0 -0 -0 -0 0 -0 -1 0 -0 0 1 1 1 1 nan
nan -0 -0 -0 -0 -0 -0 -0 -0 -0 -0 0 -0 -0 -0 0 -0 -0 -0 0 -0 0 -0 -0 0 -0 -0 -0 -0 0 0 -0 -0 0 -0 -1 -0 1 0 0 0 0 0 1 nan
nan -0 -0 -0 -0 -0 -0 -0 0 -0 0 -0 -0 -0 -0 -0 0 -0 -0 -0 0 0 -0 0 0 -0 -0 -0 -0 -0 0 -0 0 -0 -0 -0 0 0 -0 -0 -0 1 1 1 nan
nan -0 -0 0 -0 -0 -0 -0 0 0 0 -0 -0 -0 0 0 -0 -0 0 -0 0 -0 -0 -0 0 -0 -0 -0 0 -0 -0 -0 -0 -0 -0 -1 -0 -0 0 0 0 1 1 1 nan
nan -0 0 0 -0 -0 -0 1 0 0 -0 -0 -0 -0 -0 0 0 -0 0 0 0 0 -0 0 -0 -0 0 -0 -0 -0 -0 -0 0 0 0 -0 -1 0 0 0 1 0 1 1 nan
nan -0 0 0 -0 0 0 0 0 0 -0 0 -0 0 0 0 -0 0 0 -0 0 0 -0 0 -0 0 -0 -0 -0 -0 0 0 0 0 -0 -0 -0 -0 0 0 0 1 1 1 nan
nan -0 0 -0 -1 -1 -0 0 1 0 -0 0 0 0 -0 -0 0 0 1 -0 0 0 0 0 -1 -1 -0 0 0 -0 -0 0 0 -0 -0 -1 -1 -1 -0 0 1 2 2 2 nan
nan -0 -0 -0 0 0 -0 0 0 -0 0 -0 -0 -1 -0 0 0 -0 0 -0 -0 0 -0 -0 -0 -0 -0 0 1 -0 0 0 -0 -0 -0 -1 -0 -0 -0 -0 1 1 1 1 nan
nan -0 -0 -0 -0 -0 -0 -0 -0 0 -0 -0 -0 -0 1 -0 -0 0 0 -0 -0 -1 -0 0 -0 -0 -0 0 0 -0 -1 -0 0 -0 -0 0 -1 -1 0 1 1 1 1 2 nan
nan nan nan nan nan nan nan nan nan nan nan nan nan nan nan nan nan nan nan nan nan nan nan nan nan nan nan nan nan nan nan nan nan nan nan nan nan nan nan nan nan nan nan nan nan
Wind_Speed
13 13 13 14 15 15 15 15 12 12 10 10 11 11 12 14 15 11 9 10 8 5 4 9 4 3 6 7 6 2 3 5 5 8 8 13 7 7 3 5 8 6 2 3 21
12 13 14 15 16 15 14 12 11 9 7 8 7 6 6 8 11 12 9 6 5 4 4 4 4 5 5 5 5 5 1 4 4 7 8 15 7 10 6 9 10 8 5 12 18
12 13 14 15 15 15 12 10 9 5 5 4 3 1 2 1 2 8 4 2 2 3 4 6 4 2 6 6 7 6 3 8 4 2 9 13 7 10 7 9 12 13 12 18 17
12 13 14 15 14 14 12 8 5 3 4 2 2 1 3 4 1 8 5 3 4 6 6 5 4 1 3 4 3 6 5 3 6 7 9 11 6 7 14 1 1 8 17 19 17
11 13 13 14 14 12 9 6 4 3 3 3 3 3 1 4 6 6 6 7 7 5 5 4 1 5 5 6 9 9 7 8 9 6 6 6 8 8 12 11 2 11 17 18 16
13 12 12 14 13 10 7 5 6 5 4 4 3 2 2 1 5 11 7 6 3 5 9 4 5 11 11 5 6 7 10 11 7 7 5 5 5 3 7 12 10 15 17 17 16
12 13 13 11 10 8 5 5 4 5 8 9 10 10 5 4 3 3 9 11 10 4 4 7 6 2 7 8 11 14 8 7 7 6 1 4 11 13 7 13 15 17 17 17 16
13 13 10 9 9 7 5 3 2 4 3 2 1 3 3 5 5 4 4 9 10 9 10 13 11 10 5 15 7 5 4 6 11 8 4 4 8 10 12 16 18 18 18 18 18
13 9 8 8 8 6 4 3 3 2 3 2 3 2 4 2 1 1 2 2 4 6 7 8 6 7 6 4 5 5 5 2 8 11 3 10 9 9 12 15 16 18 19 19 19
10 7 8 7 7 4 3 4 7 2 3 5 2 2 4 1 2 3 4 3 3 3 2 1 2 4 3 4 5 8 6 2 5 6 8 11 17 14 16 17 18 18 19 20 20
8 7 7 6 5 2 1 4 2 3 6 4 3 2 3 0 2 3 5 5 5 5 4 1 6 5 5 5 5 5 7 8 4 5 6 12 16 13 12 18 18 19 19 21 22
9 7 5 4 2 1 1 2 2 5 3 3 3 3 0 2 3 4 2 5 5 4 4 6 4 4 2 2 4 5 8 5 2 1 4 13 18 12 7 18 19 20 20 20 19
8 6 4 2 1 2 1 1 3 1 4 2 1 1 1 2 3 5 5 3 4 2 4 5 6 3 1 2 6 4 6 7 7 12 10 13 6 4 2 3 10 17 19 19 20
7 5 2 2 4 3 2 2 3 2 4 6 3 2 1 1 4 4 3 1 3 3 3 3 4 2 2 2 3 7 3 4 9 8 4 4 5 6 5 4 10 12 17 20 19
6 4 3 4 2 1 2 5 3 1 4 2 3 2 1 3 3 1 4 2 4 1 3 5 3 4 5 1 2 4 2 7 6 7 7 4 4 6 3 3 5 9 12 14 17
5 4 4 2 1 2 1 6 3 4 1 3 1 1 4 3 2 3 1 0 1 3 1 3 2 2 2 2 4 4 5 7 4 4 5 4 4 2 1 1 4 6 6 9 13
4 3 3 2 2 3 4 5 5 5 2 3 1 2 3 2 2 2 2 4 4 5 8 5 5 4 2 4 5 7 10 2 3 3 4 3 3 8 3 5 5 5 6 8 11
6 4 2 3 1 2 2 4 5 3 1 1 1 3 5 1 3 2 4 8 4 5 5 5 5 5 2 2 4 3 5 3 3 4 7 4 6 1 4 4 6 8 8 9 13
6 6 5 3 2 1 3 6 3 1 2 1 3 5 5 4 3 3 5 6 1 2 4 3 3 3 3 2 3 3 2 3 4 1 4 4 6 10 7 7 11 12 11 12 15
6 5 9 8 4 2 5 7 2 1 1 2 4 2 5 3 4 4 5 3 4 2 1 3 4 2 3 2 1 4 1 3 3 3 4 6 8 8 10 7 7 9 14 13 15
6 4 8 10 7 5 8 9 2 3 4 5 4 4 6 3 8 5 3 4 3 4 2 3 3 4 2 8 5 4 3 3 2 2 3 5 5 5 7 4 6 7 8 12 16
5 4 5 8 7 5 9 5 1 4 5 6 4 7 7 3 5 5 5 1 3 6 3 2 4 6 2 3 2 3 4 7 3 4 4 3 8 4 5 4 7 10 10 9 14
4 7 7 10 6 9 6 4 5 6 7 5 5 8 2 4 5 7 3 2 4 5 2 3 5 4 5 3 2 5 7 8 3 2 11 6 6 3 3 8 11 13 12 11 12
3 3 5 10 8 8 9 12 9 6 6 7 3 4 5 7 8 3 5 3 5 4 3 2 4 9 9 4 2 5 9 13 11 6 6 14 18 21 15 12 17 13 10 11 14
4 4 3 3 10 14 8 3 8 6 8 8 4 14 9 5 6 7 8 5 6 7 5 3 5 7 13 13 10 11 12 15 20 20 9 14 14 20 19 18 21 9 7 10 14
4 5 3 6 3 7 11 11 14 11 7 7 11 5 14 10 8 2 6 7 6 10 8 5 3 2 6 5 6 13 16 18 21 21 21 22 25 23 28 13 11 12 12 14 16
8 10 4 3 4 6 10 10 7 7 12 12 11 11 10 16 9 1 1 2 2 5 11 7 4 3 5 0 8 12 18 21 11 10 20 14 13 11 8 13 17 15 13 17 17
Wind_Direction
126 130 131 131 128 126 128 126 120 116 119 116 118 107 90 87 56 45 27 33 49 64 56 16 20 41 46 51 46 333 193 142 140 176 136 159 155 161 192 150 191 193 181 152 171
128 129 132 133 127 127 125 121 121 119 121 131 134 118 94 103 83 41 27 37 58 53 2 336 334 10 44 31 14 349 126 89 36 79 160 169 182 173 179 191 209 202 190 156 166
126 132 135 131 126 127 119 123 124 118 114 137 163 173 315 16 88 14 30 44 11 340 348 319 309 25 67 49 14 11 61 128 96 70 155 162 184 179 211 216 225 212 185 171 170
136 138 138 129 129 126 121 122 102 105 114 145 206 194 27 12 6 347 16 356 333 318 321 296 286 7 72 61 41 108 74 93 122 115 139 165 184 215 223 298 184 207 178 174 181
140 135 134 132 132 128 128 104 92 93 112 159 204 206 105 86 24 7 5 5 353 321 284 274 6 107 106 104 77 92 118 104 118 131 151 169 200 235 238 228 190 165 171 181 190
138 136 135 133 132 137 115 108 114 89 87 123 160 181 292 99 48 31 16 2 9 70 61 80 103 110 94 75 30 118 125 123 139 144 163 219 236 259 225 195 179 176 185 191 197
143 139 134 133 133 133 113 119 102 94 90 96 102 96 68 104 77 41 48 55 59 72 92 101 93 251 119 107 116 132 123 151 175 180 198 263 246 229 221 185 188 192 195 200 204
142 136 136 136 134 129 120 105 99 108 76 73 72 53 78 117 72 68 48 30 48 59 74 88 89 85 82 119 136 198 205 223 150 173 151 215 299 173 174 184 195 200 204 208 211
144 133 134 136 136 129 112 82 62 89 56 36 50 287 118 118 6 147 4 343 360 27 52 66 84 98 139 207 178 195 317 288 157 198 152 218 290 140 180 197 205 209 213 216 219
147 141 143 136 143 131 120 84 54 58 35 43 43 186 135 203 262 271 294 327 294 278 279 293 175 160 169 280 355 343 315 330 299 154 220 246 260 262 200 204 221 221 221 223 225
156 149 143 140 150 126 135 339 266 143 46 56 352 21 78 321 47 315 283 299 275 262 281 281 256 44 55 24 347 318 303 300 324 104 275 265 277 280 216 211 225 232 227 228 229
156 148 138 137 138 56 36 15 324 133 86 58 59 56 355 266 278 359 331 283 286 290 265 224 82 80 89 11 308 301 305 334 83 72 281 306 300 297 284 215 223 231 233 231 230
163 154 119 110 67 354 105 80 97 107 274 160 154 14 272 320 299 318 6 301 309 271 340 8 88 132 254 279 317 297 307 331 315 317 252 297 250 164 128 260 215 231 237 236 232
172 170 131 51 46 86 78 76 340 307 260 140 177 202 290 290 240 346 347 309 212 302 327 62 126 186 219 271 315 305 38 307 305 309 351 339 324 130 146 189 209 228 229 232 232
180 178 166 38 151 99 125 15 333 333 276 99 140 230 315 257 335 209 356 277 298 164 246 87 177 196 237 9 306 2 325 300 298 281 309 166 259 110 170 172 195 211 223 227 228
183 186 193 25 141 198 315 347 338 233 239 132 218 209 238 229 242 306 246 113 182 254 205 89 129 265 19 236 247 323 268 229 252 256 232 98 346 262 85 344 197 204 227 232 223
197 195 208 215 226 236 304 335 250 251 145 138 241 250 271 243 210 300 271 222 271 257 199 170 185 142 222 248 221 245 273 219 209 212 351 132 274 267 162 204 245 257 244 236 218
208 207 222 229 254 240 287 252 255 56 329 112 254 241 247 192 191 230 246 239 198 256 285 266 205 190 125 331 335 333 315 355 299 317 308 141 234 88 127 178 215 230 236 231 216
223 226 234 239 259 263 237 246 306 32 39 242 220 245 208 206 267 243 235 277 14 227 268 275 177 133 59 324 303 116 255 7 285 214 264 228 255 230 182 236 230 233 224 227 218
228 239 245 235 244 248 248 252 284 115 157 236 257 230 277 181 226 210 214 128 181 196 272 50 259 175 111 231 170 284 80 235 188 292 289 292 298 262 216 243 211 237 238 235 222
219 249 249 226 215 220 238 237 262 211 197 222 277 265 244 263 241 251 283 141 201 161 223 299 245 123 176 204 180 159 199 214 305 266 277 301 279 17 260 289 268 277 273 244 225
222 235 235 202 206 232 236 235 228 212 204 236 268 260 254 213 245 243 253 251 163 178 202 125 302 257 212 96 359 305 261 204 243 165 247 281 270 195 243 259 258 271 282 259 233
242 248 233 188 228 217 216 242 244 204 215 200 236 235 230 236 242 231 239 116 169 204 251 143 214 251 183 181 193 233 207 226 254 272 245 258 260 132 226 250 256 261 265 254 229
281 251 219 209 260 270 236 242 231 216 234 212 250 222 212 230 223 258 231 167 187 193 208 181 265 258 285 11 19 203 208 210 208 224 245 232 271 288 295 308 316 299 252 241 223
244 254 275 212 228 230 241 289 226 216 219 212 230 225 211 242 222 229 215 168 191 191 188 231 266 279 273 282 255 258 249 206 215 227 237 267 280 283 296 304 305 299 269 232 221
282 299 307 274 274 221 218 241 244 230 191 219 233 231 224 236 224 293 194 206 207 180 192 189 254 295 280 258 263 258 251 239 227 242 255 266 276 280 281 282 284 279 263 241 231
257 276 289 285 242 229 229 251 258 258 234 247 237 238 229 237 245 218 231 329 196 183 191 186 228 232 273 237 293 273 245 217 207 218 223 240 238 266 273 281 284 285 273 250 241
Height
1547 1548 1549 1550 1550 1552 1554 1554 1555 1555 1557 1556 1557 1558 1558 1557 1556 1557 1558 1556 1555 1555 1554 1553 1554 1552 1551 1550 1550 1549 1546 1554 1561 1562 1568 1579 1581 1586 1586 1588 1590 1591 1592 1594 1595
1549 1550 1552 1553 1552 1554 1555 1556 1557 1558 1559 1559 1559 1560 1559 1558 1558 1559 1560 1558 1557 1556 1556 1555 1554 1553 1552 1553 1553 1549 1545 1556 1563 1565 1569 1577 1579 1584 1586 1587 1589 1590 1591 1594 1593
1551 1554 1555 1554 1554 1556 1556 1559 1558 1559 1559 1560 1561 1561 1561 1559 1559 1562 1561 1559 1558 1556 1555 1554 1553 1552 1553 1555 1557 1557 1556 1567 1571 1572 1572 1577 1580 1583 1583 1584 1584 1587 1590 1591 1594
1556 1556 1556 1554 1556 1557 1558 1561 1559 1561 1559 1559 1562 1562 1561 1561 1560 1562 1561 1559 1558 1556 1555 1554 1553 1552 1554 1556 1560 1563 1569 1569 1573 1575 1576 1579 1580 1581 1581 1580 1581 1584 1587 1590 1592
1557 1556 1557 1555 1558 1559 1561 1561 1561 1561 1559 1560 1562 1562 1562 1564 1565 1562 1561 1559 1557 1556 1555 1554 1553 1553 1554 1560 1560 1563 1571 1573 1575 1577 1578 1579 1579 1579 1578 1580 1582 1584 1586 1588 1590
1558 1558 1559 1558 1558 1563 1561 1562 1562 1562 1561 1559 1562 1562 1563 1563 1565 1563 1561 1559 1557 1556 1554 1554 1554 1554 1558 1562 1561 1568 1570 1574 1577 1578 1579 1579 1579 1581 1574 1578 1581 1582 1584 1586 1588
1559 1559 1561 1561 1561 1564 1563 1564 1563 1563 1561 1562 1563 1563 1564 1566 1565 1564 1563 1560 1558 1556 1555 1554 1554 1556 1559 1564 1568 1569 1570 1573 1575 1577 1577 1580 1574 1572 1573 1576 1578 1580 1582 1584 1585
1562 1561 1563 1563 1563 1564 1565 1565 1564 1562 1563 1563 1564 1564 1566 1565 1565 1565 1564 1563 1560 1558 1556 1555 1555 1555 1560 1564 1568 1564 1564 1561 1568 1575 1578 1581 1560 1564 1571 1574 1575 1577 1579 1581 1582
1563 1563 1564 1564 1564 1566 1567 1566 1565 1563 1564 1564 1566 1566 1566 1566 1567 1565 1564 1564 1562 1560 1558 1557 1557 1560 1564 1557 1557 1560 1554 1554 1565 1571 1573 1577 1559 1566 1570 1572 1573 1574 1576 1578 1579
1564 1565 1566 1565 1566 1567 1567 1567 1565 1565 1564 1565 1567 1569 1568 1568 1566 1566 1565 1564 1564 1562 1562 1560 1558 1555 1555 1553 1558 1558 1553 1552 1557 1567 1571 1567 1562 1561 1565 1568 1570 1571 1573 1575 1577
1567 1567 1567 1566 1568 1568 1568 1567 1569 1569 1565 1568 1570 1568 1568 1568 1567 1567 1565 1564 1564 1562 1556 1558 1552 1556 1560 1564 1564 1562 1559 1557 1552 1567 1569 1559 1552 1550 1555 1563 1565 1566 1567 1569 1570
1569 1568 1568 1568 1568 1567 1567 1569 1569 1569 1568 1569 1569 1569 1568 1568 1568 1567 1565 1566 1562 1557 1559 1557 1558 1565 1566 1566 1565 1561 1559 1553 1556 1567 1569 1554 1549 1546 1548 1551 1558 1561 1561 1563 1566
1570 1570 1570 1569 1569 1568 1569 1570 1569 1569 1568 1570 1569 1569 1570 1570 1568 1567 1565 1565 1562 1559 1556 1555 1565 1568 1567 1563 1562 1553 1560 1559 1565 1561 1555 1558 1541 1544 1551 1552 1554 1556 1558 1558 1560
1570 1570 1571 1570 1572 1569 1571 1571 1570 1570 1564 1568 1569 1569 1570 1569 1568 1565 1564 1566 1562 1559 1560 1561 1568 1567 1565 1564 1565 1560 1565 1566 1565 1564 1554 1557 1549 1535 1542 1547 1551 1552 1553 1553 1555
1571 1571 1571 1571 1571 1573 1573 1571 1570 1571 1572 1570 1569 1569 1569 1570 1568 1565 1565 1565 1561 1559 1563 1564 1565 1566 1564 1564 1566 1561 1567 1566 1566 1562 1559 1554 1552 1536 1539 1539 1541 1545 1547 1548 1550
1571 1571 1571 1572 1572 1573 1572 1571 1571 1572 1571 1567 1568 1567 1567 1568 1567 1566 1566 1565 1565 1562 1560 1563 1567 1567 1565 1567 1567 1567 1565 1562 1563 1557 1555 1552 1554 1529 1528 1532 1536 1542 1544 1545 1546
1572 1572 1572 1572 1574 1572 1572 1572 1569 1570 1567 1567 1566 1566 1565 1563 1564 1565 1564 1560 1560 1560 1556 1561 1561 1567 1568 1565 1565 1563 1552 1548 1550 1550 1544 1554 1557 1529 1526 1531 1534 1537 1539 1541 1542
1572 1573 1572 1572 1572 1572 1572 1571 1576 1564 1561 1567 1567 1567 1564 1563 1562 1563 1561 1558 1563 1561 1553 1551 1557 1562 1567 1565 1563 1560 1558 1551 1566 1551 1546 1556 1551 1519 1526 1530 1532 1534 1535 1537 1538
1572 1572 1571 1572 1572 1573 1574 1571 1560 1562 1565 1565 1566 1564 1558 1563 1565 1562 1557 1554 1559 1561 1559 1552 1553 1566 1567 1568 1569 1561 1556 1562 1557 1558 1562 1529 1521 1516 1524 1528 1529 1530 1531 1532 1533
1572 1572 1570 1570 1571 1573 1571 1567 1563 1565 1567 1567 1565 1561 1558 1556 1563 1560 1551 1558 1560 1564 1564 1556 1556 1562 1567 1569 1568 1565 1564 1561 1557 1561 1557 1526 1523 1524 1520 1515 1519 1525 1527 1528 1529
1571 1571 1568 1569 1570 1571 1568 1562 1564 1566 1567 1567 1562 1562 1559 1559 1559 1556 1550 1560 1561 1564 1565 1561 1559 1564 1566 1562 1554 1565 1561 1563 1563 1559 1557 1549 1525 1506 1508 1511 1514 1517 1519 1521 1523
1570 1569 1566 1567 1571 1566 1561 1561 1566 1565 1566 1566 1566 1561 1558 1557 1556 1555 1552 1553 1562 1563 1561 1560 1556 1548 1546 1558 1560 1558 1551 1551 1555 1560 1560 1562 1537 1507 1508 1512 1515 1515 1515 1516 1518
1569 1566 1565 1566 1562 1560 1562 1563 1563 1563 1562 1563 1561 1560 1559 1558 1560 1552 1555 1562 1563 1563 1561 1561 1553 1544 1551 1560 1561 1558 1551 1551 1550 1556 1552 1553 1519 1505 1510 1511 1511 1510 1510 1511 1512
1570 1564 1564 1564 1561 1558 1554 1556 1556 1559 1560 1560 1559 1560 1560 1557 1555 1553 1555 1562 1563 1564 1565 1565 1555 1547 1535 1541 1540 1549 1548 1550 1550 1546 1538 1529 1513 1500 1502 1500 1500 1501 1502 1504 1506
1569 1563 1561 1556 1557 1557 1556 1553 1553 1554 1559 1558 1556 1555 1554 1552 1553 1552 1550 1560 1563 1563 1564 1564 1555 1546 1539 1537 1540 1540 1536 1545 1545 1531 1533 1507 1509 1499 1499 1499 1497 1498 1498 1499 1499
1569 1566 1562 1559 1558 1557 1555 1550 1550 1548 1552 1552 1552 1546 1550 1549 1545 1544 1547 1551 1548 1561 1561 1561 1553 1552 1541 1534 1541 1539 1532 1530 1533 1530 1525 1518 1513 1497 1496 1495 1495 1494 1493 1492 1492
1565 1564 1565 1557 1556 1555 1549 1547 1546 1546 1545 1545 1545 1546 1547 1543 1546 1546 1546 1548 1547 1550 1554 1557 1553 1549 1538 1537 1535 1530 1510 1511 1515 1515 1516 1519 1495 1492 1491 1491 1489 1487 1487 1486 1486